Location: *
(46.4000°N, 12.6667°E)
Time: 15:14:07
(UTC+00:00)

Envisat - Pass Details

Date: 11 March 2021
Orbit: 764 x 766 km, 98.1° (Epoch: 17 April)

Event Time Altitude Azimuth Distance (km) Brightness Sun altitude
Rises 03:21:53 0° 32° (NNE) 3,242 7.0 -22.6°
Reaches altitude 10° 03:25:35 10° 60° (ENE) 2,309 6.6 -22.0°
Maximum altitude 03:27:53 13° 87° (E) 2,100 6.3 -21.6°
Drops below altitude 10° 03:30:11 10° 114° (ESE) 2,300 6.1 -21.2°
Sets 03:33:50 0° 142° (SE) 3,219 6.5 -20.6°
